Torna al catalogo

STARLINK-35089

AttivoComunicazioniVLEO
NORAD 65484·PAYLOAD·🇺🇸 United States

Lanciato Sep 3, 2025 da Cape Canaveral Space Force Station

Loading…

Prossimi Passaggi (prossime 24 ore)

TLE

AggiornatoSource: CelesTrak SupGP

Epoca: Sep 14, 2026, 14:04 UTC

1 65484C 25195AC  26257.58659722  .00011812  00000+0  34894-3 0  2575
2 65484  53.1582  96.9983 0001122  95.6029  43.8270 15.34389957    13

Traccia STARLINK-35089 in tempo reale con AllMySat

Download on the App Store